This is the latest recevied weather packets stored in our database for station/object N0NPO. If no packets are shown the sender has not sent any weather packets the latest 10 day(s).
| Time | Temp. | Humidity | Pressure | Rain* | Wind** | Luminosity | Snow |
|---|---|---|---|---|---|---|---|
| 1788135818 | 87° F | 1% | 757.7 mmHg | 0 in | - | 49 W/m² | - |
| 1788135514 | 86° F | 1% | 757.6 mmHg | 0 in | - | 48 W/m² | - |
| 1788135208 | 86° F | 1% | 757.6 mmHg | 0 in | - | 44 W/m² | - |
| 1788134907 | 86° F | 1% | 757.6 mmHg | 0 in | - | 94 W/m² | - |
| 1788134606 | 88° F | 1% | 757.8 mmHg | 0 in | - | 117 W/m² | - |
| 1788134304 | 87° F | 1% | 757.5 mmHg | 0 in | - | 127 W/m² | - |
| 1788133999 | 86° F | 1% | 757.8 mmHg | 0 in | - | 146 W/m² | - |
| 1788133695 | 86° F | 1% | 757.8 mmHg | 0 in | - | 159 W/m² | - |
| 1788133391 | 87° F | 1% | 757.8 mmHg | 0 in | - | 141 W/m² | - |
| 1788133086 | 88° F | 1% | 757.7 mmHg | 0 in | - | 170 W/m² | - |
| 1788132781 | 87° F | 1% | 757.6 mmHg | 0 in | - | 150 W/m² | - |
| 1788132477 | 87° F | 1% | 757.6 mmHg | 0 in | - | 158 W/m² | - |
| 1788132173 | 85° F | 1% | 757.6 mmHg | 0 in | - | 127 W/m² | - |
| 1788131868 | 85° F | 1% | 757.5 mmHg | 0 in | - | 186 W/m² | - |
| 1788131563 | 84° F | 1% | 757.6 mmHg | 0 in | - | 201 W/m² | - |
| 1788131258 | 84° F | 1% | 757.6 mmHg | 0 in | - | 219 W/m² | - |
| 1788130953 | 85° F | 1% | 757.6 mmHg | 0 in | - | 214 W/m² | - |
| 1788130652 | 85° F | 1% | 757.7 mmHg | 0 in | - | 212 W/m² | - |
| 1788130347 | 84° F | 1% | 757.7 mmHg | 0 in | - | 136 W/m² | - |
| 1788130047 | 85° F | 1% | 757.9 mmHg | 0 in | - | 117 W/m² | - |
| 1788129742 | 84° F | 1% | 758 mmHg | 0 in | - | 72 W/m² | - |
| 1788129438 | 85° F | 1% | 757.9 mmHg | 0 in | - | 64 W/m² | - |
| 1788129134 | 86° F | 1% | 757.8 mmHg | 0 in | - | 89 W/m² | - |
| 1788128828 | 86° F | 1% | 757.7 mmHg | 0 in | - | 208 W/m² | - |
| 1788128524 | 87° F | 1% | 757.6 mmHg | 0 in | - | 379 W/m² | - |
* Rain latest hour (hover to see other rain measurements)
** Current wind speed in m/s (hover to see current wind gust speed)